{"data":{"norad_id":62762,"epoch":"2026-05-25T04:47:03.096960Z","epoch_age_seconds":57563,"freshness":"FRESH","line1":"1 62762U 25015E   26145.19934140  .00023367  00000+0  76199-3 0  9990","line2":"2 62762  53.1589 326.4692 0001116  63.7637 296.3479 15.31717153 76208","mean_motion":15.31717153,"eccentricity":0.0001116,"inclination_deg":53.1589,"raan_deg":326.4692,"arg_perigee_deg":63.7637,"mean_anomaly_deg":296.3479,"bstar":0.00076199,"rev_number":7620,"period_min":94.012135150386,"perigee_km":469.92453453602,"apogee_km":471.45319246876,"semimajor_km":6848.8258635024,"source":"CELESTRAK","updated_at":"2026-05-25T13:38:19.743793Z"}}